Regional Weather Roundup
Issued by NWS

Home | Current Version | Previous Version | Graphics & Text | Print | Product List | Glossary On
Versions: 1 2 3 4 5 6 7 8 9 10 11 12 13 14 15 16 17 18 19 20 21 22 23 24 25 26 27 28 29 30 31 32 33 34 35 36 37 38 39 40 41 42 43 44 45 46 47 48 49 50
000
ASUS43 KLSX 201607
RWRMO

WEATHER SUMMARY FOR MISSOURI
NATIONAL WEATHER SERVICE SPRINGFIELD MO
1100 AM CDT WED AUG 20 2014

NOTE: "FAIR" INDICATES FEW OR NO CLOUDS BELOW 12,000 FEET WITH NO
       SIGNIFICANT WEATHER AND/OR OBSTRUCTIONS TO VISIBILITY.
       CURRENT SKY AND/OR WEATHER CONDITIONS ARE NOT AVAILABLE FOR
       CHILLICOTHE AND FARMINGTON.

MOZ001>031-035>038-043-044-053-054-201700-
...NORTHERN AND WESTERN MISSOURI...

CITY           SKY/WX    TMP DP  RH WIND       PRES   REMARKS
KANSAS CTY INT MOSUNNY   85  72  65 SW14      29.89R HX  91
KANSAS C DTWN  SUNNY     88  71  57 SW13      29.88R HX  94
LEE`S SUMMIT   SUNNY     85  71  63 SW9       29.91R HX  90
ST JOSEPH      MOSUNNY   83  73  72 S9        29.87R
CHILLICOTHE      N/A     82  73  74 VRB5      29.94R
KIRKSVILLE     CLOUDY    75  67  76 NE5       29.97R

$$
MOZ066>068-077>081-088>096-101>105-201700-
...SOUTHWEST MISSOURI...

CITY           SKY/WX    TMP DP  RH WIND       PRES   REMARKS
SPRINGFIELD    SUNNY     88  67  49 SW14      29.99R HX  91
JOPLIN         SUNNY     87  70  56 S17       29.97R HX  92

$$
MOZ032>034-039>042-045>050-055>058-069>072-201700-
...CENTRAL MISSOURI...

CITY           SKY/WX    TMP DP  RH WIND       PRES   REMARKS
COLUMBIA       CLOUDY    84  74  71 SW12      29.95R HX  91
JEFFERSON CITY CLOUDY    84  72  67 SW8       29.94R
ROLLA          PTSUNNY   83  72  69 SW7       29.97R
SEDALIA        MOSUNNY   85  72  65 SW12G18   29.95R HX  91
OSAGE BEACH    MOSUNNY   86  70  58 SW9       29.95S HX  90

$$
MOZ051-052-059>065-201700-
...EAST CENTRAL MISSOURI...

CITY           SKY/WX    TMP DP  RH WIND       PRES   REMARKS
ST LOUIS INTL  CLOUDY    86  73  65 SW5       29.96R HX  93
SPIRIT OF STL  CLOUDY    84  73  69 W3        29.95R HX  90
ST CHARLES     CLOUDY    82  73  74 SE5       29.94R

$$
MOZ072>076-082>087-097>100-106>115-201700-
...SOUTH CENTRAL AND SOUTHEAST MISSOURI...

CITY           SKY/WX    TMP DP  RH WIND       PRES   REMARKS
CAPE GIRARDEAU CLOUDY    84  76  76 SW7       29.98R HX  93
FARMINGTON     MOSUNNY   88  72  58 SW3       30.00S HX  94
POPLAR BLUFF   SUNNY     87  72  60 SW8       29.97S HX  93
WEST PLAINS    SUNNY     85  69  58 W8        30.03R

$$



USA.gov is the U.S. government's official web portal to all federal, state and local government web resources and services.